User: anonymous   Login
Location: Young's Pond
(41.2695°N, 72.7766°W)
Time: 11:37:45
(UTC-04:00)
Language:

Spot 4 - Orbit

View from above orbital plane
View from above orbital plane
View from above satellite
View from above satellite

Ground track
Ground track

The orbit data is extracted from the following two-line orbital elements,

1 25260U 98017A   14304.12988933  .00000347  00000-0  95223-4 0  4810
2 25260 098.4466 009.1124 0012454 344.5414 015.5399 14.53068111862392
Epoch (UTC): 31 October 2014 03:07:02
Eccentricity: 0.0012454
inclination: 98.4466°
perigee height: 707 km
apogee height: 724 km
right ascension of ascending node: 9.1124°
argument of perigee: 344.5414°
revolutions per day: 14.53068111
mean anomaly at epoch: 15.5399°
orbit number at epoch: 86239

The dashed part of the orbit path shows where the satellite is in the earth's shadow,  

DLR